WB4KKT Weather Reports


time (UTC)temp
C
wind
direction
speed
KPH
gust
KPH
rain 1hr
cm
rain 24hr
cm
rain mn
cm
humidity
%
barometer
mb
20260505210036 28 218 4.8 30.6 0.00 0.00 0.00 42 1013.3
20260505204533 28 145 8.0 20.9 0.00 0.00 0.00 41 1013.2
20260505203037 28 249 6.4 17.7 0.00 0.00 0.00 38 1013.4
20260505201537 28 180 6.4 16.1 0.00 0.00 0.00 38 1013.6
20260505200006 28 180 9.7 24.1 0.00 0.00 0.00 37 1013.8
20260505194503 29 210 4.8 25.7 0.00 0.00 0.00 39 1014.0
20260505193101 29 138 4.8 14.5 0.00 0.00 0.00 38 1014.3
20260505191608 28 227 9.7 25.7 0.00 0.00 0.00 38 1014.6
20260505190104 28 223 9.7 24.1 0.00 0.00 0.00 37 1014.8
20260505184603 28 146 8.0 30.6 0.00 0.00 0.00 36 1014.8
20260505183131 28 235 6.4 25.7 0.00 0.00 0.00 38 1014.9
20260505181657 28 223 9.7 20.9 0.00 0.00 0.00 37 1015.0
20260505180056 28 225 3.2 19.3 0.00 0.00 0.00 39 1015.0
20260505174553 28 103 8.0 19.3 0.00 0.00 0.00 38 1015.0
20260505173054 27 256 8.0 30.6 0.00 0.00 0.00 41 1015.1
20260505171557 27 171 6.4 17.7 0.00 0.00 0.00 42 1015.3
20260505170045 27 228 9.7 22.5 0.00 0.00 0.00 42 1015.6
20260505164545 26 203 9.7 24.1 0.00 0.00 0.00 45 1015.6
20260505163044 26 192 8.0 17.7 0.00 0.00 0.00 45 1015.7
20260505161543 25 286 9.7 24.1 0.00 0.00 0.00 47 1015.8
20260505153034 25 186 6.4 16.1 0.00 0.00 0.00 49 1015.9
20260505151535 24 240 6.4 19.3 0.00 0.00 0.00 52 1016.0
20260505124600 18 244 4.8 22.5 0.00 0.00 0.00 66 1016.6
20260505123058 18 269 6.4 17.7 0.00 0.00 0.00 68 1016.6
20260505121555 17 235 6.4 17.7 0.00 0.00 0.00 69 1016.5
20260505120110 16 250 3.2 12.9 0.00 0.00 0.00 71 1016.5
20260505114553 16 214 0.0 14.5 0.00 0.00 0.00 74 1016.4
20260505113053 15 183 4.8 9.7 0.00 0.00 0.00 74 1016.4
20260505111551 15 205 1.6 8.0 0.00 0.00 0.00 75 1016.3
20260505101543 15 288 3.2 11.3 0.00 0.00 0.00 73 1015.6
20260505100042 15 234 6.4 14.5 0.00 0.00 0.00 72 1015.3
20260505094538 15 251 4.8 12.9 0.00 0.00 0.00 72 1015.2
20260505093041 16 234 3.2 11.3 0.00 0.00 0.00 72 1015.2
20260505091536 16 261 3.2 14.5 0.00 0.00 0.00 71 1015.1
20260505090042 16 243 3.2 9.7 0.00 0.00 0.00 71 1015.0
20260505084533 16 207 1.6 8.0 0.00 0.00 0.00 70 1015.0
20260505083030 16 177 3.2 12.9 0.00 0.00 0.00 69 1014.9
20260505081535 16 253 4.8 12.9 0.00 0.00 0.00 69 1014.8
20260505080037 16 246 4.8 16.1 0.00 0.00 0.00 69 1014.8
20260505074503 17 244 3.2 14.5 0.00 0.00 0.00 68 1014.8
20260505073002 17 231 3.2 9.7 0.00 0.00 0.00 68 1014.8
20260505071501 17 236 4.8 16.1 0.00 0.00 0.00 68 1014.6
20260505070058 17 244 3.2 9.7 0.00 0.00 0.00 67 1014.5
20260505064556 17 229 1.6 16.1 0.00 0.00 0.00 66 1014.6
20260505063055 17 176 4.8 11.3 0.00 0.00 0.00 65 1014.5
20260505061557 17 250 3.2 16.1 0.00 0.00 0.00 65 1014.6
20260505060052 17 250 4.8 19.3 0.00 0.00 0.00 64 1014.6
20260505054609 17 215 8.0 16.1 0.00 0.00 0.00 64 1014.7
20260505053100 17 196 4.8 14.5 0.00 0.00 0.00 65 1014.9
20260505051546 18 250 3.2 17.7 0.00 0.00 0.00 65 1014.8
20260505041514 18 250 4.8 16.1 0.00 0.00 0.00 64 1014.8
20260505040009 18 190 3.2 16.1 0.00 0.00 0.00 64 1014.8
20260505034510 18 45 4.8 17.7 0.00 0.00 0.00 63 1014.6
20260505033008 18 290 4.8 17.7 0.00 0.00 0.00 64 1014.5
20260505031542 18 222 3.2 17.7 0.00 0.00 0.00 63 1014.6
20260505030147 18 248 3.2 20.9 0.00 0.00 0.00 64 1014.5
20260505023029 19 179 3.2 16.1 0.00 0.00 0.00 64 1014.6
20260505021536 19 132 6.4 17.7 0.00 0.00 0.00 64 1014.5
20260505020144 20 317 4.8 19.3 0.00 0.00 0.00 64 1014.4
20260505014611 20 136 8.0 30.6 0.00 0.00 0.00 63 1014.4
20260505013113 20 217 1.6 19.3 0.00 0.00 0.00 63 1014.2
20260505011535 20 250 4.8 14.5 0.00 0.00 0.00 62 1014.1
20260505010025 20 171 4.8 19.3 0.00 0.00 0.00 62 1013.8
20260505003023 21 156 4.8 20.9 0.00 0.00 0.00 59 1013.4
20260505001519 21 217 6.4 19.3 0.00 0.00 0.00 59 1013.3
20260505000118 21 196 1.6 11.3 0.00 0.00 0.00 56 1013.1
20260504234609 22 192 6.4 19.3 0.00 0.00 0.00 53 1013.0
20260504233031 23 154 6.4 14.5 0.00 0.00 0.00 48 1012.7
20260504230009 24 169 1.6 16.1 0.00 0.00 0.00 39 1012.4
20260504223007 25 268 6.4 16.1 0.00 0.00 0.00 36 1012.3
20260504214542 26 244 6.4 17.7 0.00 0.00 0.00 36 1012.3
20260504211635 26 229 4.8 19.3 0.00 0.00 0.00 36 1012.6